Regional Weather Roundup
Issued by NWS Austin/San Antonio, TX

Home | Current Version | Previous Version | Text Only | Print | Product List | Glossary On
Versions: 1 2 3 4 5 6 7 8 9 10 11 12 13 14 15 16 17 18 19 20 21 22 23 24 25 26 27 28 29 30 31 32 33 34 35 36 37 38 39 40 41 42 43 44 45 46 47 48 49 50
000
ASUS44 KEWX 160811
RWREWX
SOUTH TEXAS REGIONAL WEATHER ROUNDUP
NATIONAL WEATHER SERVICE AUSTIN/SAN ANTONIO TX
200 AM CST TUE JAN 16 2018

NOTE: "FAIR" INDICATED FEW OR NO CLOUDS BELOW 12,000 FEET WITH NO
SIGNIFICANT WEATHER AND/OR OBSTRUCTIONS TO VISIBILITY.

* - THESE STATIONS ARE NOT NWS OR FAA STATIONS...AND ARE NOT SUBJECT
    TO NWS AND FAA QUALITY CONTROL.

TXZ171-172-183>190-160900-
TEXAS HILL COUNTRY AND EDWARDS PLATEAU

CITY           SKY/WX    TMP DP  RH WIND       PRES   REMARKS
JUNCTION       CLOUDY    29  12  49 N15       30.56R WCI  18
*LLANO         MIX PCPN  30  19  64 N17G25    30.64R WCI  18
BURNET         CLOUDY    29  17  61 N16G30    30.58R WCI  17
*HORSESHOE BAY CLOUDY    31  24  77 N13G25    30.58R WCI  21
*KERRVILLE     CLOUDY    32  26  79 N15G30    30.49R WCI  21
*FREDERICKSBRG CLOUDY    31  19  62 N15G22    30.52R WCI  20
*ROCKSPRINGS     N/A     30  16  55 NE21G30   30.49R WCI  17
*BOERNE STAGE  CLOUDY    34  32  93 N15G22    30.46R WCI  24
HONDO          LGT RAIN  43  32  65 NE25G36   30.42R WCI  33
*UVALDE        CLOUDY    42  36  79 N14G25    30.41R WCI  34
DEL RIO        CLOUDY    43  28  55 N14G23    30.48R WCI  36
LAUGHLIN AFB   CLOUDY    39  34  81 N17       30.48R WCI  30
CARRIZO SPRGS  CLOUDY    48  41  76 NE20G28   30.35R WCI  41
*EAGLE PASS    CLOUDY    46  32  57 NW14G23   30.42R WCI  40
*FAITH RANCH   PTCLDY    55  52  88 NE5       30.30R
$$

TXZ173-191>194-202-209-217>225-228-160900-
CENTRAL AND SOUTH CENTRAL TEXAS

CITY           SKY/WX    TMP DP  RH WIND       PRES   REMARKS
GEORGETOWN     FLURRIES  32  28  85 N16G24    30.57R WCI  21
AUSTIN/BERGSTM LGT RAIN  33  33 100 N22G35    30.54R FOG     WCI  21
AUSTIN/MABRY   LGT RAIN  33  29  85 N12G23    30.56R WCI  24
*AUSTIN/EXEC   LGT RAIN  32  30  93 N21G32    30.55R WCI  20
*LAGO VISTA    MIX PCPN  31  29  94 MISG      30.52S
SAN MARCOS     LGT RAIN  36  30  80 N32G40    30.51R WCI  22
NEW BRAUNFELS  CLOUDY    37  33  85 N25G36    30.47R WCI  25
RANDOLPH AFB   LGT RAIN  38  34  86 N20G31    30.45R WCI  27
PT SAN ANTONIO CLOUDY    39  34  81 N21G32    30.42R WCI  29
SAN ANTONIO    LGT RAIN  38  34  85 N21G31    30.45S WCI  28
STINSON FIELD  CLOUDY    41  36  82 N21G35    30.43R WCI  32
*LA GRANGE     DRIZZLE   36  34  91 N15G22    30.48R WCI  27
*GIDDINGS      DRIZZLE   32  31  94 N14G28    30.51R WCI  22
*GONZALES      CLOUDY    37  35  92 N20G33    30.47R WCI  27
$$

TXZ163>164-176>182-195>201-210>213-226-227-235-160900-
SOUTHEAST TEXAS

CITY           SKY/WX    TMP DP  RH WIND       PRES   REMARKS
COLLEGE STN    FLURRIES  33  30  88 N25G33    30.52R WCI  20
*BRYAN         MIX PCPN  31  31  99 N16G31    30.54R WCI  20
*CALDWELL      MIX PCPN  31  29  92 N21G35    30.52R FOG     WCI  19
*CROCKETT      MIX PCPN  32  28  86 CALM      30.55R
*BRENHAM       DRIZZLE   37  36  96 N22G29    30.50R WCI  26
HUNTSVILLE     LGT SNOW  35  34  96 N13G24    30.48R FOG     WCI  26
CONROE         LGT RAIN  43  42  97 N17G24    30.42R WCI  35
HOUSTON BUSH   RAIN      52  51  97 N15       30.38R FOG
HOUSTON HOBBY  CLOUDY    54  52  93 N16       30.33R
*HOUSTON SW AP CLOUDY    53  50  87 N10G18    30.35R
PEARLAND       CLOUDY    53  52  96 CALM      30.33S
HOUSTON HOOKS  RAIN      45  44  97 N13G25    30.41R FOG     WCI  39
ELLINGTON FLD  MOCLDY    54  52  94 N3        30.34R
SUGAR LAND     LGT RAIN  52  48  86 N17       30.37R
*HOUSTON EXEC  MIX PCPN  43  41  93 N22G30    30.42R WCI  34
*CLEVELAND MUN LGT RAIN  47  45  91 N14G21    30.41R WCI  41
*WHARTON       LGT RAIN  45  42  88 N18G28    30.39R WCI  37
*COLUMBUS      DRIZZLE   39  37  92 N17G28    30.44R WCI  29
*EAGLE LAKE    LGT RAIN  41  40  94 N22G31    30.42R WCI  32
$$

TXZ214>216-236>238-160900-
THE UPPER TEXAS COAST

CITY           SKY/WX    TMP DP  RH WIND       PRES   REMARKS
*ORANGE        CLOUDY    51  49  95 CALM      30.36S
PORT ARTHUR    CLOUDY    52  48  86 NE3       30.34R
GALVESTON      CLOUDY    59  55  87 E9        30.32R
ANGLETON       CLOUDY    54  51  90 CALM      30.31R
*BAY CITY      CLOUDY    55  53  90 NE3       30.30R
PALACIOS       CLOUDY    54  53  97 E5        30.29S
$$

TXZ229>234-239>247-160900-
TEXAS COASTAL BEND AND RIO GRANDE PLAINS

CITY           SKY/WX    TMP DP  RH WIND       PRES   REMARKS
VICTORIA       LGT RAIN  43  40  89 N20G28    30.39R FOG     WCI  34
*BEEVILLE      CLOUDY    49  44  83 N25G35    30.36R WCI  42
ROCKPORT       CLOUDY    59  55  87 CALM      30.29R
*PORT ARANSAS  NOT AVBL
*PORT LAVACA   CLOUDY    54  51  92 N3        30.31R
*INGLESIDE     DRIZZLE   60  56  84 S5        30.28S
CORPUS CHRISTI LGT RAIN  60  57  89 N6        30.29R
CORPUS NAS     CLOUDY    62  56  80 CALM      30.29R
*ROBSTOWN      NOT AVBL
ALICE          CLOUDY    58  51  78 NE5       30.29S
KINGSVILLE NAS CLOUDY    57  53  86 N6        30.29R
COTULLA        CLOUDY    54  45  71 N26G35    30.35R
LAREDO         CLOUDY    59  52  77 E7        30.29R
$$

TXZ248>255-160900-
DEEP SOUTH TEXAS

CITY           SKY/WX    TMP DP  RH WIND       PRES   REMARKS
BROWNSVILLE    CLOUDY    64  56  75 E6        30.25S
PORT ISABEL    CLOUDY    63  55  75 E7        30.25R
*SOUTH PADRE   NOT AVBL
HARLINGEN      CLOUDY    61  55  81 E7        30.25R
*HEBBRONVILLE  CLOUDY    56  51  85 CALM      30.30R
MCALLEN        CLOUDY    64  54  69 E10       30.25R
*WESLACO       CLOUDY    63  54  72 E6        30.25R
FALFURRIAS     CLOUDY    61  53  75 CALM      30.28R
EDINBURG       CLOUDY    65  54  67 SE9       30.26S
*ZAPATA        FAIR      59  51  75 E5        30.26R
$$

TXZ213>215-236>238-242>244-246-247-251-254-255-160900-
CMAN STATIONS

STATION/POSITION TIME  TEMP    WIND        PRES    WAVE
                       AIR SEA DIR/SP/G            HT/PER
                 (UTC) (F)     (DEG/KT/KT) (MB)    (FT/S)
SABINE PASS      0748   51 52   40/  3/  4 1028.6
SEA RIM ST PARK  0800   52     110/  5/  5 1027.1
NORTH JETTY/GLS  0742      51   90/  6/  7 1026.2
EAGLE POINT      0748   51 49  110/  3/  3 1026.7
MORGANS POINT    0742      50  110/  4/  6 1026.6
PORT O`CONNOR    0748   56 54  130/  2/  3 1025.5
MALAQUITE BEACH  0748   62 57   90/  2/  3 1025.1
BAFFIN BAY       0742   61 59  120/  4/  5 1025.4
PORT ISABEL      0742   63 58  170/  1/  4 1024.2
$$



USA.gov is the U.S. government's official web portal to all federal, state and local government web resources and services.